Retour au catalogue

IGS O-5

ActifMilitaireSSO
NORAD 40538·PAYLOAD·🇯🇵 Japan

Lancé Mar 26, 2015 depuis Tanegashima Space Center

Loading…

Prochains Passages (prochaines 24 heures)

TLE

PériméSource: Mike McCants

Époque: Aug 28, 2026, 21:25 UTC

1 40538U 15015A   26240.89276377 0.00000000  00000-0  00000-0 0    08
2 40538  97.3445 311.2271 0001099 305.7460  54.2538 15.27648071    03

Suivez IGS O-5 en temps réel avec AllMySat

Download on the App Store